SITE ID,DATE,TIME ,PO43-,,NO3- & NO2-,,NH4+ & NH3,,Si,,TDP,,TDN,,TOC,TSS,Turbidity,ALK,SALINITY,TEMP,pH,DO,Vibrio,Total Count
,M/D/Y,(2400),(�M),(�g P/L),(�M),(�g N/L),(�M),(�g N/L),(�M),(�g Si/L),(�M),(�g P/L),(�M),(�g N/L),(mgC/L),(mg/L),(NTU),(mEq/L),(PSU),(?C),(unit),(ppm),CFU/100mL,Marine Agar
,,,,,,,,,,,,,,,,,,,,,,,,CFU/100mL
"DSW40""",8/16/88,,2.9,91,38,529,0.02,0.3,78,2196,3.0,93,41,569,0.24,,,2.40,34.347,7.3,7.64,,,
"DSW40""",8/31/88,,3.1,95,41,572,0.09,1.3,80,2252,3.1,96,44,615,0.28,,,,34.330,7.5,7.69,,,
"DSW40""",9/9/88,,3.1,97,41,574,0.00,0.0,83,2320,3.2,98,43,606,0.22,,,2.40,34.345,7.0,7.64,,,
"DSW40""",9/15/88,,3.2,98,41,579,0.00,0.0,86,2405,3.2,99,45,632,0.29,,,2.38,34.374,7.3,7.51,1.09,,
"DSW40""",9/23/88,,3.1,97,41,571,0.00,0.0,82,2292,3.2,98,43,602,0.25,,,2.41,34.289,7.5,7.64,1.07,,
"DSW40""",9/30/88,,2.9,88,36,503,0.03,0.4,82,2309,2.9,90,38,538,0.24,,,2.39,34.379,7.0,7.90,1.06,,
"DSW40""",10/7/88,,3.2,99,42,583,0.00,0.0,86,2402,3.2,99,44,616,0.26,,,2.41,34.383,7.8,7.82,1.00,,
"DSW40""",10/14/88,,3.1,97,41,574,0.00,0.0,80,2252,3.2,98,43,604,0.25,,,2.40,34.351,7.4,7.50,1.06,,
"DSW40""",10/21/88,,3.2,98,41,580,0.00,0.0,85,2377,3.2,99,44,612,0.24,,,2.41,34.326,7.4,7.64,1.03,,
"DSW40""",10/28/88,,3.2,98,41,576,0.00,0.0,83,2320,3.2,100,43,607,0.20,,,2.38,34.377,7.3,7.55,1.14,,
"DSW40""",11/4/88,,3.1,95,41,571,0.00,0.0,78,2188,3.1,94,44,611,0.30,,,2.41,34.355,7.8,7.66,1.00,,
"DSW40""",11/9/88,,3.2,98,41,580,0.00,0.0,77,2160,3.4,104,43,604,0.23,,,2.40,34.020,6.8,7.55,1.06,,
"DSW40""",11/18/88,,3.0,94,40,559,0.00,0.0,82,2317,3.1,95,43,596,0.32,,,2.41,34.384,7.0,7.59,1.08,,
"DSW40""",11/25/88,,3.1,96,41,573,0.00,0.0,80,2233,3.2,98,43,608,0.31,,,2.40,34.369,6.9,7.58,1.11,,
"DSW40""",12/2/88,,3.1,95,41,568,0.00,0.0,77,2174,3.1,96,43,597,0.30,,,2.40,34.348,7.0,8.00,1.09,,
"DSW40""",12/9/88,,3.1,96,41,580,0.00,0.0,83,2328,3.1,96,43,608,0.26,,,2.40,34.384,7.0,7.63,0.98,,
"DSW40""",12/16/88,,3.1,95,41,571,0.00,0.0,79,2205,3.1,96,43,599,0.30,,,2.40,34.357,7.1,7.66,1.19,,
"DSW40""",12/23/88,,3.2,98,42,585,0.03,0.4,85,2401,3.2,98,44,616,0.27,,,2.40,34.405,7.3,7.55,1.13,,
"DSW40""",12/28/88,,3.0,94,40,557,0.00,0.0,79,2222,3.0,94,43,604,0.28,,,2.42,34.377,7.0,7.62,1.07,,
"DSW40""",1/4/89,,3.0,94,40,560,0.00,0.0,79,2206,3.1,94,43,596,0.28,,,2.42,34.368,7.1,7.57,1.13,,
"DSW40""",1/12/89,,3.1,95,41,568,0.02,0.3,81,2261,3.1,96,45,629,0.29,,,2.42,34.379,7.2,7.59,0.97,,
"DSW40""",1/20/89,,3.1,96,41,573,0.00,0.0,81,2261,3.1,96,44,610,0.28,,,2.42,34.384,6.6,7.56,1.00,,
"DSW40""",1/27/89,,3.1,96,41,572,0.02,0.3,82,2289,3.1,97,44,617,0.28,,,2.41,34.378,6.8,7.57,0.99,,
"DSW40""",2/1/89,,3.1,96,42,584,0.02,0.3,81,2278,3.2,98,44,620,0.32,,,2.40,34.398,7.2,7.58,1.07,,
"DSW40""",2/7/89,,3.1,96,41,573,0.00,0.0,84,2373,3.2,98,44,620,0.28,,,2.41,34.392,6.9,7.62,2.23,,
"DSW40""",2/15/89,,3.1,96,41,570,0.00,0.0,80,2250,3.1,97,44,614,0.28,,,2.40,34.392,9.0,7.56,1.34,,
"DSW40""",2/21/89,,3.1,95,40,565,0.02,0.3,82,2289,3.1,96,44,620,0.31,,,2.41,34.371,8.7,7.59,1.09,,
"DSW40""",2/27/89,,3.1,95,40,567,0.00,0.0,82,2306,3.1,96,44,615,0.29,,,2.42,34.368,7.0,7.57,1.01,,
"DSW40""",3/6/89,,3.1,94,41,577,0.02,0.3,74,2076,3.1,96,44,610,0.26,,,2.40,34.375,7.4,7.55,1.04,,
"DSW40""",3/13/89,,3.0,93,41,574,0.07,1.0,76,2132,3.0,93,44,613,0.23,    ,,2.41,34.369,7.5,7.55,1.14,,
"DSW40""",3/20/89,,3.1,95,42,582,0.05,0.7,81,2284,3.1,96,44,621,0.26,,,2.41,34.404,7.7,7.60,1.14,,
"DSW40""",3/28/89,,3.1,96,42,592,0.07,1.0,84,2368,3.2,98,45,630,0.29,,,2.42,34.417,7.0,7.56,1.14,,
"DSW40""",4/4/89,,3.1,96,42,585,0.02,0.3,81,2284,3.1,97,44,619,0.30,,,2.39,34.399,7.0,7.58,1.11,,
"DSW40""",4/10/89,,3.1,95,41,580,0.00,0.0,79,2216,3.1,97,44,616,0.27,,,2.43,34.384,7.3,7.55,2.09,,
"DSW40""",4/18/89,,3.1,95,41,578,0.02,0.3,77,2171,3.1,96,44,618,0.22,,,2.41,34.379,7.0,7.56,1.04,,
"DSW40""",4/24/89,,3.0,94,42,582,0.00,0.0,79,2227,3.1,96,45,625,0.33,,,2.42,34.368,7.1,7.54,1.15,,
"DSW40""",5/1/89,,3.0,94,42,587,0.00,0.0,84,2366,3.1,96,45,636,0.03,,,2.43,34.381,8.4,7.54,1.04,,
"DSW40""",5/8/89,,3.1,96,42,594,0.00,0.0,86,2410,3.1,97,46,643,0.25,,,2.43,34.321,8.2,7.54,1.40,,
"DSW40""",5/15/89,,3.1,96,42,591,0.00,0.0,86,2421,3.1,97,46,639,0.24,,,2.42,34.402,6.7,7.54,1.07,,
"DSW40""",5/22/89,,3.1,95,42,586,0.00,0.0,84,2354,3.1,97,44,622,0.23,,,2.42,34.398,6.8,7.52,1.40,,
"DSW40""",5/30/89,,3.1,96,42,594,0.00,0.0,87,2448,3.2,98,45,629,0.20,,,2.42,34.407,6.8,7.55,1.07,,
"DSW40""",6/5/89,,3.1,95,42,592,0.03,0.4,81,2283,3.1,97,45,630,0.25,,,2.43,34.397,7.2,7.56,1.09,,
"DSW40""",6/13/89,,3.1,95,41,574,0.00,0.0,87,2448,3.1,97,45,635,0.20,,,2.43,34.411,7.4,7.57,1.10,,
"DSW40""",6/19/89,,3.1,96,42,594,0.00,0.0,87,2448,3.2,99,45,635,0.26,,,2.44,34.421,7.1,7.58,1.16,,
"DSW40""",6/26/89,,3.1,95,42,584,0.00,0.0,83,2338,3.2,98,45,625,0.27,,,2.43,,7.2,,1.10,,
"DSW40""",7/3/89,,3.1,95,42,583,0.00,0.0,84,2366,3.1,95,44,623,0.23,,,2.40,34.410,7.1,,1.09,,
"DSW40""",7/10/89,,3.1,96,42,586,0.03,0.4,88,2462,3.1,96,45,632,0.24,,,2.39,34.419,7.8,,1.04,,
"DSW40""",7/17/89,,3.1,96,41,577,0.03,0.4,88,2473,3.2,98,45,626,0.27,,,2.38,34.429,7.4,,1.09,,
"DSW40""",7/24/89,,3.1,96,41,577,0.00,0.0,82,2313,3.1,97,44,621,0.26,,,2.39,34.392,7.4,7.54,1.04,,
"DSW40""",8/1/89,,3.2,98,42,592,0.03,0.4,89,2500,3.2,98,45,629,0.24,,,2.38,34.430,7.2,7.53,1.05,,
"DSW40""",8/7/89,,3.1,95,41,573,0.06,0.8,84,2347,3.1,97,44,622,0.29,,,2.39,34.383,7.5,7.53,0.97,,
"DSW40""",8/14/89,,3.1,96,41,578,0.05,0.7,82,2302,3.1,97,45,623,0.27,,,2.39,34.385,7.4,7.55,0.93,,
"DSW40""",8/21/89,,3.1,96,42,586,0.03,0.4,84,2366,3.1,97,45,625,0.27,,,2.39,34.398,,7.53,0.90,,
"DSW40""",8/31/89,,3.0,93,41,576,0.03,0.4,79,2217,3.1,95,43,603,0.26,,,2.37,34.373,,7.54,0.97,,
"DSW40""",9/5/89,,3.0,93,41,574,0.03,0.4,76,2148,3.1,95,43,606,0.30,,,2.39,34.373,7.9,7.56,0.93,,
"DSW40""",9/11/89,,3.0,92,41,570,0.05,0.7,78,2188,3.0,93,44,622,0.24,,,2.37,34.378,7.6,7.55,1.10,,
"DSW40""",9/19/89,,3.0,94,41,577,0.03,0.4,82,2302,3.1,96,45,633,0.32,,,2.37,34.394,7.7,7.55,1.13,,
"DSW40""",9/27/89,,3.1,95,42,585,0.05,0.7,85,2377,3.1,95,45,627,0.28,,,2.37,34.413,7.7,7.58,1.09,,
"DSW40""",10/3/89,,3.0,94,42,589,0.05,0.7,85,2377,3.1,95,43,608,0.27,,,2.37,34.412,7.9,7.55,1.27,,
"DSW40""",10/9/89,,3.0,94,42,586,0.03,0.4,81,2274,3.0,94,43,604,0.24,,,2.37,34.388,7.8,7.59,1.09,,
"DSW40""",10/16/89,,3.1,96,43,602,0.03,0.4,88,2462,3.1,97,44,619,0.25,,,2.37,34.434,7.7,7.55,1.00,,
"DSW40""",10/23/89,,3.0,94,42,585,0.00,0.0,78,2177,3.1,95,44,610,0.31,,,2.35,34.387,8.0,7.53,1.09,,
"DSW40""",11/1/89,,3.1,95,42,582,0.00,0.0,81,2268,3.1,95,44,612,0.25,,,2.37,34.377,7.9,7.52,1.07,,
"DSW40""",11/9/89,,3.1,94,41,571,0.02,0.3,81,2278,3.1,95,44,610,0.23,,,2.60,34.390,7.7,7.55,1.44,,
"DSW40""",11/13/89,,3.1,97,42,586,0.06,0.8,85,2393,3.2,98,45,631,0.27,,,2.36,34.438,7.6,7.52,1.34,,
"DSW40""",11/20/89,,3.1,95,41,574,0.00,0.0,83,2324,3.1,97,44,618,0.26,,,2.35,34.405,7.5,7.54,1.37,,
"DSW40""",11/27/89,,3.1,97,41,581,0.02,0.3,87,2450,3.2,98,44,617,0.25,,,2.37,34.415,7.5,7.51,1.29,,
"DSW40""",12/7/89,,3.1,97,42,586,0.06,0.8,89,2507,3.2,98,45,626,0.25,,,2.37,34.423,7.6,7.55,1.43,,
"DSW40""",12/14/89,,3.1,95,41,579,0.02,0.3,86,2422,3.1,97,44,610,0.25,,,2.36,34.402,7.2,7.55,1.31,,
"DSW40""",12/18/89,,3.1,96,41,577,0.02,0.3,85,2393,3.1,97,44,613,0.26,,,2.36,34.397,7.4,7.54,1.20,,
"DSW40""",12/26/89,,3.1,96,42,582,0.04,0.6,87,2450,3.1,96,44,613,0.23,,,2.33,34.410,7.2,7.55,1.29,,
"DSW40""",1/4/90,,3.1,96,41,581,0.02,0.3,85,2393,3.1,97,44,615,0.24,,,2.33,34.397,7.6,7.55,1.17,,
"DSW40""",1/12/90,,1.4,43,25,352,0.00,0.0,104,2930,,,,,,,,2.33,34.276,7.5,7.54,1.21,,
"DSW40""",1/18/90,,1.7,52,36,498,0.00,0.0,80,2252,1.7,53,33,458,0.97,,,2.34,34.435,7.4,7.53,1.26,,
"DSW40""",1/22/90,,1.5,47,33,461,0.00,0.0,100,2799,1.5,46,30,416,0.98,,,2.34,34.430,7.4,7.54,1.27,,
"DSW40""",2/1/90,,2.1,65,36,507,0.00,0.0,84,2365,2.2,68,36,509,0.80,,,2.34,34.395,7.5,7.52,1.11,,
"DSW40""",2/8/90,,2.6,81,38,535,0.00,0.0,79,2228,2.7,84,31,437,1.05,,,2.34,34.410,7.5,7.53,1.49,,
"DSW40""",2/15/90,,2.1,64,31,428,0.23,3.2,80,2244,2.7,84,39,551,0.79,,,2.34,34.412,7.5,7.55,1.11,,
"DSW40""",2/20/90,,1.5,48,33,461,0.75,10.5,77,2156,2.3,71,40,567,0.84,,,2.36,34.420,7.5,7.56,1.16,,
"DSW40""",2/26/90,,1.1,35,25,349,0.00,0.0,77,2172,2.0,61,36,507,0.81,,,2.36,34.417,7.5,7.53,1.17,,
"DSW40""",3/8/90,,2.2,67,30,414,0.00,0.0,99,2775,3.1,94,33,468,0.80,,,2.36,34.425,7.3,7.55,1.04,,
"DSW40""",3/13/90,,1.9,59,30,423,0.34,4.8,83,2333,2.9,88,44,611,0.89,,,2.36,34.400,7.5,7.53,1.09,,
"DSW40""",3/21/90,,1.7,54,30,423,0.15,2.1,73,2043,2.5,78,39,539,0.87,,,2.36,34.416,7.5,7.57,1.06,,
"DSW40""",3/27/90,,2.2,68,33,461,0.15,2.1,72,2011,2.7,83,38,532,0.80,,,2.37,34.531,7.8,7.56,1.14,,
"DSW40""",4/2/90,,2.6,80,41,579,0.00,0.0,91,2564,2.2,68,44,612,,,,2.36,34.388,7.6,7.52,1.07,,
"DSW40""",4/9/90,,2.2,69,44,611,0.00,0.0,110,3101,1.9,59,41,580,,,,2.37,34.432,7.3,7.55,1.11,,
"DSW40""",4/16/90,,1.8,56,33,457,0.00,0.0,111,3117,1.4,44,29,406,,,,2.36,34.391,7.7,7.59,1.13,,
"DSW40""",4/23/90,,3.0,93,44,613,0.00,0.0,,,3.1,94,44,614,0.61,,,2.36,34.428,7.7,7.57,1.13,,
"DSW40""",4/30/90,,3.0,92,43,601,0.00,0.0,,,3.0,94,43,606,,,,2.35,34.401,7.8,7.55,1.21,,
"DSW40""",5/7/90,,3.0,94,44,612,0.00,0.0,,,3.1,95,44,622,0.61,,,2.37,34.120,7.3,7.59,1.13,,
"DSW40""",5/14/90,,3.0,93,43,601,0.10,1.4,,,3.0,94,44,610,0.57,,,2.36,34.368,7.5,7.54,1.14,,
"DSW40""",5/21/90,,3.0,94,43,605,0.05,0.7,,,3.1,96,44,614,0.48,,,2.36,34.387,7.2,7.59,1.06,,
"DSW40""",5/29/90,,3.0,94,43,608,0.05,0.7,,,3.1,96,44,618,0.60,,,2.36,34.389,8.1,7.58,1.11,,
"DSW40""",6/4/90,,3.1,95,44,615,0.01,0.1,,,3.2,99,45,626,1.68,,,2.37,34.421,8.1,7.58,1.14,,
"DSW40""",6/11/90,,3.1,96,43,598,0.10,1.4,,,3.1,97,43,606,2.43,,,2.37,34.413,8.0,7.58,1.11,,
"DSW40""",6/18/90,,3.1,96,43,597,0.00,0.0,,,3.3,103,43,606,1.50,,,2.37,34.396,8.4,7.59,1.12,,
"DSW40""",6/25/90,,3.2,98,43,599,0.02,0.3,,,3.3,102,43,608,0.66,,,2.37,34.401,7.7,7.59,1.13,,
"DSW40""",7/2/90,,3.2,99,43,600,0.02,0.3,87,2436,3.3,103,44,611,2.25,,,2.38,34.410,7.8,7.60,1.13,,
"DSW40""",7/6/90,,3.2,98,43,604,0.22,3.1,87,2451,3.4,104,44,611,,,,2.36,34.415,7.5,7.58,1.15,,
"DSW40""",7/13/90,,3.2,99,43,598,0.16,2.2,85,2386,3.4,106,44,610,0.90,,,2.35,34.396,7.9,7.58,1.20,,
"DSW40""",7/23/90,,3.2,99,43,597,0.00,0.0,85,2378,3.4,104,43,605,2.17,,,2.35,34.390,7.8,7.58,1.13,,
"DSW40""",7/30/90,,3.2,99,42,595,0.00,0.0,82,2312,3.3,103,43,608,1.30,,,2.36,34.378,8.1,7.56,1.09,,
"DSW40""",8/6/90,,3.2,100,43,598,0.10,1.4,85,2386,3.2,100,43,608,1.47,,,2.35,34.403,8.1,7.56,1.11,,
"DSW40""",8/13/90,,3.0,92,42,584,0.00,0.0,,,3.4,106,43,599,2.69,,,2.36,34.395,8.0,7.57,1.16,,
"DSW40""",8/20/90,,3.0,94,42,590,0.00,0.0,,,3.3,103,43,607,0.69,,,2.35,34.409,8.0,7.57,1.11,,
"DSW40""",8/27/90,,3.0,94,42,590,0.00,0.0,,,3.3,103,43,604,4.88,,,2.36,34.412,8.9,7.55,1.20,,
"DSW40""",9/4/90,,3.0,94,42,590,0.00,0.0,,,3.4,104,44,610,3.53,,,2.35,34.411,7.9,7.54,1.10,,
"DSW40""",9/10/90,,3.0,94,42,587,0.00,0.0,,,3.3,103,44,610,0.74,,,2.35,34.394,7.1,7.56,1.07,,
"DSW40""",9/17/90,,2.5,79,41,579,0.00,0.0,97,2716,3.7,114,46,639,0.78,,,2.33,34.292,8.4,7.55,1.20,,
"DSW40""",9/24/90,,3.2,98,42,584,0.00,0.0,86,2410,3.5,107,43,603,0.81,,,2.34,34.382,7.9,7.56,1.11,,
"DSW40""",10/1/90,,3.3,102,45,625,0.00,0.0,86,2428,3.5,109,45,636,0.76,,,2.33,34.389,8.0,7.57,1.17,,
"DSW40""",10/10/90,,2.8,86,37,521,0.00,0.0,99,2766,3.6,112,48,671,0.88,,,2.33,34.388,7.9,7.57,1.12,,
"DSW40""",10/15/90,,2.8,86,38,527,0.00,0.0,100,2817,3.9,122,50,707,0.63,,,2.33,34.383,7.6,8.40,1.13,,
"DSW40""",10/22/90,,3.4,105,43,597,0.00,0.0,88,2480,3.4,106,45,631,0.97,,,2.33,34.369,8.0,7.54,1.10,,
"DSW40""",10/29/90,,3.4,105,43,600,0.00,0.0,87,2445,3.5,108,45,636,0.67,,,2.34,34.397,8.0,7.55,1.12,,
"DSW40""",11/5/90,,3.3,101,43,603,0.00,0.0,85,2390,3.6,110,45,631,0.65,,,2.33,34.378,8.0,7.55,1.11,,
"DSW40""",11/13/90,,3.1,95,46,649,0.00,0.0,86,2424,3.3,101,49,682,0.62,,,2.34,34.398,8.8,7.54,1.09,,
"DSW40""",11/20/90,,3.2,99,45,626,0.00,0.0,88,2470,3.5,109,47,655,0.66,,,2.33,34.389,7.5,7.55,1.04,,
"DSW40""",11/28/90,,3.1,97,43,597,0.00,0.0,89,2486,3.2,100,44,619,0.67,,,2.34,34.397,7.2,7.59,1.10,,
"DSW40""",12/3/90,,3.2,98,42,592,0.00,0.0,86,2427,3.3,102,44,615,0.62,,,3.33,34.392,7.2,7.55,1.06,,
"DSW40""",12/11/90,,3.1,97,47,663,0.00,0.0,86,2421,3.3,102,50,699,0.59,,,2.33,34.397,7.3,7.56,1.05,,
"DSW40""",12/17/90,,3.2,98,45,633,0.00,0.0,87,2452,3.2,100,47,656,0.53,,,2.34,34.417,7.4,7.55,1.08,,
"DSW40""",12/28/90,,3.1,96,39,539,0.00,0.0,92,2573,3.4,106,39,545,1.14,,,2.35,34.423,6.6,7.56,1.08,,
"DSW40""",1/2/91,,3.1,96,42,591,0.04,0.6,89,2486,3.2,98,44,618, ,,,2.33,34.424,7.0,7.56,0.97,,
"DSW40""",1/7/91,,,,,,,,,,,,,,,,,2.33,,7.7,7.60,0.94,,
"DSW40""",1/11/91,,3.1,96,45,631,0.13,1.8,87,2440,3.3,102,46,643,0.68,,,,34.402,,,,,
"DSW40""",1/14/91,,,,,,,,,,,,,,0.63,,,2.33,34.414,7.5,7.56,0.88,,
"DSW40""",1/24/91,,2.9,90,42,595,0.03,0.4,79,2208,3.0,93,45,626,0.61,,,2.32,34.384,7.6,7.58,0.83,,
"DSW40""",1/28/91,,3.3,101,43,602,0.13,1.8,85,2379,3.3,102,44,622,0.62,,,2.27,34.427,7.4,7.57,0.96,,
"DSW40""",2/4/91,,3.1,97,42,595,0.14,2.0,79,2213,3.2,100,45,628,1.33,,,2.26,34.389,7.8,7.55,0.87,,
"DSW40""",2/11/91,,3.2,99,44,613,0.14,2.0,87,2429,3.3,102,47,651,1.39,,,2.27,34.448,7.8,7.59,1.01,,
"DSW40""",2/19/91,,3.0,94,43,598,0.16,2.2,88,2466,3.1,97,45,623,1.27,,,2.26,34.407,8.1,7.56,0.88,,
"DSW40""",2/25/91,,2.3,71,32,454,0.02,0.3,105,2943,3.5,108,49,689,1.01,,,2.26,34.403,7.9,7.59,0.86,,
"DSW40""",3/4/91,,2.6,81,36,497,0.05,0.7,93,2615,3.2,98,45,632,1.08,,,2.25,34.385,8.4,7.56,0.89,,
"DSW40""",3/11/91,,2.5,77,34,482,0.02,0.3,99,2778,3.4,106,49,681,1.16,,,2.26,34.371,8.0,7.54,0.89,,
"DSW40""",3/18/91,,2.3,72,34,469,0.00,0.0,104,2912,3.5,107,49,686,1.02,,,2.24,34.408,7.6,7.51,0.96,,
"DSW40""",3/27/91,,2.3,70,32,445,0.05,0.7,114,3196,3.2,100,46,649,1.00,,,2.25,34.432,7.8,8.54,1.03,,
"DSW40""",4/1/91,,3.2,99,42,587,0.00,0.0,90,2525,3.3,101,44,619,0.76,,,2.24,34.350,8.0,,0.96,,
"DSW40""",4/8/91,,3.3,101,43,598,0.00,0.0,89,2505,3.3,103,46,642,0.63,,,2.37,34.416,8.0,7.55,0.99,,
"DSW40""",4/15/91,,3.0,92,41,580,0.13,1.8,78,2193,3.1,97,43,598,0.65,,,2.37,34.412,8.5,7.53,1.02,,
"DSW40""",4/23/91,,3.2,99,34,475,0.00,0.0,87,2449,3.3,102,36,500,0.71,,,2.37,34.412,7.9,7.51,1.07,,
"DSW40""",4/29/91,,3.2,98,43,605,0.05,0.7,85,2379,3.2,100,45,626,0.71,,,2.37,34.396,8.3,7.55,1.02,,
"DSW40""",5/6/91,,3.0,93,42,587,0.11,1.5,86,2413,3.1,96,44,612,0.67,,,2.37,34.400,8.4,7.54,1.07,,
"DSW40""",5/13/91,,3.0,94,42,588,0.16,2.2,87,2455,3.1,97,44,620,0.69,,,2.37,34.416,8.3,7.52,1.07,,
"DSW40""",5/20/91,,3.2,98,46,644,0.11,1.5,90,2536,3.2,100,49,691,0.74,,,2.38,34.411,7.5,7.51,0.98,,
"DSW40""",5/28/91,,3.2,98,45,625,0.31,4.3,,,3.2,99,46,646,0.71,,,2.37,34.403,7.7,7.50,1.03,,
"DSW40""",6/4/91,,3.0,94,42,592,0.00,0.0,87,2429,3.1,97,44,622,0.70,,,2.37,34.389,8.7,7.58,1.07,,
"DSW40""",6/10/91,,3.2,98,37,522,0.24,3.4,87,2429,3.4,104,38,534,0.70,,,2.37,34.401,8.4,7.55,1.02,,
"DSW40""",6/17/91,,3.2,99,42,588,0.12,1.7,85,2382,3.4,106,44,609,0.80,,,2.37,34.369,8.9,7.60,1.03,,
"DSW40""",6/24/91,,3.3,102,43,601,0.22,3.1,85,2382,3.5,108,47,651,0.66,,,2.38,34.412,8.2,7.57,0.67,,
"DSW40""",7/1/91,,3.3,102,40,566,0.21,2.9,88,2472,3.5,109,46,642,0.65,,,2.38,34.392,8.7,7.57,0.66,,
"DSW40""",7/9/91,,3.2,99,42,588,0.15,2.1,88,2477,3.5,108,45,626,0.69,,,2.39,34.404,7.8,7.56,1.06,,
"DSW40""",7/16/91,,3.4,104,42,592,0.07,1.0,84,2354,3.5,108,45,625,0.63,,,2.38,34.367,8.7,7.56,1.06,,
"DSW40""",7/22/91,,3.3,103,42,594,0.12,1.7,87,2446,3.7,116,45,630,0.55,,,2.39,34.409,8.2,7.57,1.05,,
"DSW40""",7/26/91,,3.4,104,43,604,0.15,2.1,88,2457,3.4,106,45,630,0.68,,,2.38,34.371,7.9,7.55,1.02,,
"DSW40""",8/5/91,,3.3,102,43,604,0.18,2.5,85,2382,3.3,103,46,647,0.55,,,2.38,34.369,8.8,7.49,1.02,,
"DSW40""",8/15/91,,3.3,101,43,597,0.23,3.2,88,2460,3.4,104,44,615,0.65,,,2.39,34.391,8.2,7.54,1.05,,
"DSW40""",8/21/91,,3.2,99,44,609,0.24,3.4,90,2525,3.6,112,46,637,0.58,,,2.40,34.453,7.7,7.56,1.13,,
"DSW40""",8/27/91,,3.2,98,43,605,0.15,2.1,88,2474,3.3,101,44,611,0.80,,,2.39,34.399,8.1,7.56,1.02,,
"DSW40""",9/6/91,,3.1,96,45,625,0.25,3.5,80,2252,3.2,98,48,667,0.69,,,2.39,34.404,7.7,7.57,1.08,,
"DSW40""",9/13/91,,3.1,95,42,587,0.18,2.5,87,2446,3.1,96,43,601,0.69,,,2.38,34.380,7.9,7.56,1.08,,
"DSW40""",9/18/91,,3.4,104,43,599,0.25,3.5,91,2542,3.5,107,44,616,0.59,,,2.39,34.436,7.5,7.59,1.09,,
"DSW40""",9/25/91,,3.1,96,42,592,0.15,2.1,92,2581,3.2,98,46,650,0.61,,,2.40,34.436,8.2,7.53,1.14,,
"DSW40""",10/1/91,,2.7,85,43,602,0.00,0.0,90,2539,3.0,93,44,622,0.69,,,2.40,34.428,8.5,7.55,1.14,,
"DSW40""",10/9/91,,2.9,90,42,591,0.00,0.0,91,2542,3.0,92,45,626,0.60,,,2.39,34.421,8.1,7.53,1.88,,
"DSW40""",10/25/91,,3.4,105,42,587,0.00,0.0,90,2519,3.4,106,44,619,1.04,,,2.41,34.427,7.7,7.57,1.13,,
"DSW40""",11/4/91,,3.1,97,42,594,0.00,0.0,87,2443,3.3,101,45,625,0.99,,,2.39,34.395,8.5,7.56,1.09,,
"DSW40""",11/8/91,,3.1,94,41,580,0.00,0.0,87,2449,3.2,99,43,605,1.04,,,2.39,34.374,8.4,7.57,1.10,,
"DSW40""",11/14/91,,3.1,94,42,588,0.00,0.0,86,2421,3.2,99,44,613,0.69,,,2.39,34.387,8.2,7.55,1.07,,
"DSW40""",11/22/91,,3.1,94,42,583,0.12,1.7,84,2356,3.2,98,43,602,0.63,,,2.38,34.372,7.2,7.55,1.00,,
"DSW40""",11/29/91,,3.0,94,43,597,0.25,3.5,86,2413,3.2,99,44,611,0.68,,,2.35,34.374,7.1,7.55,1.05,,
"DSW40""",12/6/91,,3.1,97,42,583,0.10,1.4,83,2340,3.3,102,43,597,0.64,,,2.37,34.379,7.3,7.55,1.07,,
"DSW40""",12/12/91,,3.0,93,41,580,0.13,1.8,86,2404,3.2,98,44,612,0.64,,,2.38,34.377,7.9,7.56,1.04,,
"DSW40""",12/19/91,,3.1,97,42,594,0.15,2.1,85,2393,3.2,100,45,626,0.86,,,2.38,34.392,7.3,7.55,1.03,,
"DSW40""",12/23/91,,3.2,100,41,577,0.00,0.0,87,2446,3.3,101,43,606,0.65,,,2.38,34.387,7.4,7.54,1.00,,
"DSW40""",1/3/92,,3.2,100,42,588,0.00,0.0,83,2331,3.3,103,45,632,1.46,,,2.35,34.400,7.6,7.55,0.89,,
"DSW40""",1/10/92,,3.1,96,41,580,0.14,2.0,84,2351,3.2,98,44,613,0.74,,,2.36,34.385,7.9,7.56,0.91,,
"DSW40""",1/16/92,,3.2,98,42,590,0.11,1.5,91,2542,3.2,100,44,622,0.69,,,2.36,34.440,7.1,7.57,1.01,,
"DSW40""",1/22/92,,3.2,98,43,597,0.06,0.8,84,2368,3.3,101,45,623,0.93,,,2.35,34.385,7.0,7.59,0.91,,
"DSW40""",1/30/92,,3.2,100,43,597,0.13,1.8,84,2348,3.3,102,44,620,0.77,,,2.36,34.408,7.9,7.56,0.96,,
"DSW40""",2/6/92,,3.2,98,42,590,0.30,4.2,84,2362,3.2,99,44,620,0.79,,,2.35,34.397,7.3,7.58,0.95,,
"DSW40""",2/14/92,,3.1,97,42,583,0.20,2.8,88,2457,3.2,100,44,615,0.82,,,2.35,34.411,7.5,7.56,0.89,,
"DSW40""",2/20/92,,3.1,96,44,615,0.08,1.1,85,2390,3.2,98,45,635,0.76,,,2.35,34.413,8.0,7.57,0.93,,
"DSW40""",2/27/92,,3.1,96,42,581,0.10,1.4,83,2320,3.2,100,43,606,0.77,,,2.35,34.412,7.5,7.56,0.91,,
"DSW40""",3/5/92,,3.1,95,43,605,0.30,4.2,83,2334,3.1,97,46,637,0.82,,,2.37,34.404,7.7,7.57,0.97,,
"DSW40""",3/12/92,,3.2,98,42,587,0.00,0.0,82,2289,3.2,100,43,602,0.99,,,2.35,34.395,8.4,7.55,0.96,,
"DSW40""",3/20/92,,3.2,98,43,601,0.04,0.6,79,2219,3.7,114,49,682,0.68,,,2.36,34.399,7.4,7.53,0.89,,
"DSW40""",3/25/92,,3.2,98,42,591,0.00,0.0,84,2345,3.3,102,49,681,0.81,,,2.36,34.420,7.8,7.57,0.95,,
"DSW40""",4/2/92,,3.3,101,42,590,0.00,0.0,84,2351,3.4,104,47,653,1.14,,,2.36,34.408,8.2,7.58,0.98,,
"DSW40""",4/9/92,,3.3,103,42,591,0.43,6.0,83,2320,3.4,105,44,617,1.03,,,2.35,34.401,8.0,7.57,0.96,,
"DSW40""",4/21/92,,3.3,101,42,581,0.47,6.6,82,2300,3.6,112,45,627,1.00,,,2.35,34.384,8.0,7.55,0.97,,
"DSW40""",4/24/92,,3.1,96,41,573,0.24,3.4,80,2247,3.4,106,44,620,0.86,,,2.35,34.390,7.9,7.55,0.94,,
"DSW40""",5/1/92,,3.2,99,41,577,0.23,3.2,82,2314,3.4,105,50,702,0.86,,,2.36,34.368,7.8,7.55,0.96,,
"DSW40""",5/7/92,,3.3,101,43,606,0.30,4.2,84,2355,3.5,109,47,658,1.06,,,2.34,34.412,7.8,7.56,0.98,,
"DSW40""",5/15/92,,3.1,96,43,597,0.27,3.8,86,2423,3.3,101,45,636,1.32,,,2.36,34.402,8.2,7.54,0.98,,
"DSW40""",5/21/92,,3.0,93,41,576,0.32,4.5,83,2337,3.1,97,43,602,1.27,,,2.36,34.380,8.5,7.52,0.95,,
"DSW40""",5/29/92,,2.9,91,42,581,0.23,3.2,83,2323,3.1,95,44,616,1.16,,,2.37,34.393,7.7,7.54,0.89,,
"DSW40""",6/4/92,,3.1,97,41,573,0.00,0.0,83,2325,3.2,99,45,626,1.29,,,2.36,34.382,7.8,7.55,0.96,,
"DSW40""",6/9/92,,3.0,93,45,635,0.33,4.6,84,2345,3.2,98,49,685,0.66,,,2.36,34.393,7.5,7.53,0.95,,
"DSW40""",6/19/92,,3.0,92,42,590,0.25,3.5,83,2342,3.1,96,53,748,0.85,,,2.37,34.398,7.4,7.54,0.97,,
"DSW40""",6/25/92,,3.0,92,42,587,0.31,4.3,85,2373,3.0,94,45,626,0.74,,,2.38,34.427,7.4,7.54,0.99,,
"DSW40""",7/2/92,,3.0,93,41,580,0.26,3.6,81,2266,3.1,95,43,608,0.70,,,2.38,34.386,7.5,7.55,0.97,,
"DSW40""",7/9/92,,3.0,92,42,581,0.80,11.2,80,2247,3.1,96,43,606,0.70,,,2.37,34.392,8.0,7.54,1.01,,
"DSW40""",7/16/92,,3.0,93,41,574,0.15,2.1,82,2303,3.0,94,42,581,0.77,,,2.37,34.385,7.8,7.55,0.95,,
"DSW40""",7/23/92,,3.0,94,42,583,0.20,2.8,83,2331,3.1,97,44,619,0.97,,,2.37,34.399,8.1,7.55,0.99,,
"DSW40""",7/31/92,,3.1,94,43,595,0.00,0.0,86,2412,3.2,98,45,626,0.86,,,2.37,34.402,7.9,7.50,1.04,,
"DSW40""",8/6/92,,3.2,98,42,590,0.38,5.3,85,2396,3.3,101,44,620,0.79,,,2.38,34.405,7.8,7.56,1.06,,
"DSW40""",8/14/92,,3.1,95,42,587,0.54,7.6,86,2409,3.3,101,45,632,0.68,,,2.38,34.410,7.2,7.56,1.09,,
"DSW40""",8/20/92,,3.1,96,41,579,0.00,0.0,82,2300,3.2,99,47,664,0.82,,,2.37,34.373,7.6,7.56,1.05,,
"DSW40""",8/27/92,,3.1,96,41,579,0.29,4.1,83,2337,3.2,98,45,626,0.75,,,2.38,34.412,7.5,7.55,1.12,,
"DSW40""",9/3/92,,3.2,98,41,578,0.17,2.4,87,2443,3.3,101,46,649,0.68,,,2.37,34.391,7.5,7.56,1.09,,
"DSW40""",9/10/92,,3.2,98,42,588,0.09,1.3,86,2407,3.3,103,44,612,0.96,,,2.38,34.429,7.6,7.55,1.13,,
"DSW40""",9/17/92,,3.2,98,41,571,0.48,6.7,79,2226,3.3,102,49,681,0.68,,,2.37,34.362,7.4,7.55,1.06,,
"DSW40""",9/25/92,,3.1,97,42,589,0.08,1.1,87,2455,3.2,99,48,668,0.68,,,2.37,34.396,7.8,7.55,1.11,,
"DSW40""",10/1/92,,3.1,95,42,583,0.00,0.0,83,2342,3.2,99,46,640,0.69,,,2.38,34.400,7.9,7.57,1.06,,
"DSW40""",10/8/92,,3.1,97,42,591,0.00,0.0,87,2432,3.2,99,46,647,0.62,,,2.38,34.409,7.8,7.57,1.04,,
"DSW40""",10/16/92,,3.2,98,42,587,0.11,1.5,85,2384,3.2,100,47,658,0.73,,,2.38,34.399,7.8,7.56,1.10,,
"DSW40""",10/22/92,,3.0,94,40,558,0.37,5.2,80,2253,3.2,98,45,633,1.01,,,2.36,34.330,8.6,7.56,1.23,,
"DSW40""",10/29/92,,3.1,96,42,581,0.23,3.2,81,2286,3.3,102,44,616,0.75,,,2.37,34.359,8.0,7.56,1.12,,
"DSW40""",11/5/92,,3.1,97,42,584,0.50,7.0,90,2518,3.3,102,46,643,0.72,,,2.39,34.388,7.2,7.57,1.08,,
"DSW40""",11/12/92,,3.1,96,40,559,0.42,5.9,85,2396,3.2,100,45,634,0.90,,,2.38,34.347,8.0,7.57,1.12,,
"DSW40""",11/19/92,,3.1,97,42,590,0.46,6.4,90,2530,3.4,105,45,624,0.73,,,2.38,34.372,7.7,7.55,1.07,,
"DSW40""",11/25/92,,3.1,96,42,594,0.19,2.7,87,2436,3.4,104,44,618,0.75,,,2.37,34.346,7.3,7.56,1.06,,
"DSW40""",12/3/92,,2.9,89,38,531,0.33,4.7,72,2011,3.3,101,41,568,0.84,,,2.37,34.247,7.5,7.56,1.07,,
"DSW40""",12/10/92,,3.0,94,42,586,0.36,5.0,87,2442,3.3,102,44,623,0.79,,,2.37,34.351,8.1,7.56,1.16,,
"DSW40""",12/17/92,,3.1,95,42,593,0.43,6.0,90,2534,3.3,102,45,626,0.75,,,2.38,34.386,7.7,7.55,1.11,,
"DSW40""",12/23/92,,3.1,95,42,587,0.39,5.5,87,2431,3.5,108,44,615,0.73,,,2.38,34.376,7.6,7.58,1.16,,
"DSW40""",12/30/92,,3.1,96,42,589,0.39,5.5,84,2363,3.3,103,45,632,0.80,,,2.37,34.356,7.7,7.58,1.11,,
"DSW40""",1/7/93,,2.7,84,40,556,0.24,3.4,79,2225,2.9,88,42,590,0.86,,,2.35,34.369,10.6,7.65,2.07,,
"DSW40""",1/14/93,,3.1,96,42,582,0.48,6.7,83,2318,3.2,98,45,626,0.77,,,2.36,34.376,7.3,7.55,1.14,,
"DSW40""",1/21/93,,3.1,95,41,577,0.44,6.2,82,2311,3.1,95,45,629,0.80,,,2.35,34.362,7.9,7.58,1.19,,
"DSW40""",1/28/93,,3.1,95,42,588,0.42,5.9,84,2354,3.1,96,50,698,0.85,,,2.36,34.383,7.2,7.57,1.11,,
"DSW40""",2/3/93,,3.1,95,43,597,0.27,3.8,84,2347,3.1,96,44,619,0.57,,,2.36,34.378,7.6,7.57,1.14,,
"DSW40""",2/11/93,,3.1,96,42,587,0.10,1.4,83,2321,3.2,99,43,606,0.58,,,2.36,34.401,7.7,7.58,1.18,,
"DSW40""",2/16/93,,3.1,96,42,595,0.13,1.8,85,2384,3.3,101,44,621,0.64,,,2.36,34.427,7.8,7.59,1.16,,
"DSW40""",2/25/93,,3.1,94,42,584,0.06,0.8,82,2301,3.1,95,44,610,0.67,,,2.36,34.396,7.6,7.59,1.11,,
"DSW40""",3/3/93,,3.0,94,42,587,0.16,2.2,84,2366,3.1,94,45,632,0.69,,,2.36,34.412,7.7,7.60,1.13,,
"DSW40""",3/11/93,,2.7,83,38,535,0.16,2.2,68,1897,2.8,86,41,571,0.72,,,2.33,34.294,10.0,7.63,6.06,,